WetterOnline ( https://www.wetteronline.de )

Wetter aktuell Lutherstadt Wittenberg

Aktuelles Wetter: Wittenberg (106m)

6-stündlich | Neueste Meldungen
Ortszeit Temperatur Wetter
Mi, 08.02. 1:00 -5.9° C Nebel
Di, 07.02. 19:00 -2.7° C leicht bewölkt
Di, 07.02. 13:00 -0.6° C leicht bewölkt
Di, 07.02. 7:00 -7.7° C wolkenlos
Di, 07.02. 1:00 -5.0° C wolkenlos
Mo, 06.02. 19:00 -2.1° C leicht bewölkt
Mo, 06.02. 13:00 0.5° C Schneegriesel
Mo, 06.02. 7:00 -3.6° C leichter Schneefall
Ortszeit Temperatur Wetter
Mi, 08.02. 4:30 -7.9° C Nebel
Mi, 08.02. 4:20 -7.9° C Dunst
Mi, 08.02. 4:10 -7.3° C Dunst
Mi, 08.02. 4:00 -7.1° C Nebel
Mi, 08.02. 3:50 -7.1° C Nebel
Mi, 08.02. 3:40 -6.9° C Nebel
Mi, 08.02. 3:30 -6.9° C Nebel
Mi, 08.02. 3:00 -6.8° C Nebel
Mi, 08.02. 2:30 -6.6° C Nebel
Mi, 08.02. 2:00 -6.2° C Nebel
Mi, 08.02. 1:30 -6.2° C Nebel
Ortszeit Relative Feuchte Sichtweite
Mi, 08.02. 1:00 93% 100 m
Di, 07.02. 19:00 88% 6 km
Di, 07.02. 13:00 65% 26 km
Di, 07.02. 7:00 90% 12 km
Di, 07.02. 1:00 91% 10 km
Mo, 06.02. 19:00 85% 17 km
Mo, 06.02. 13:00 92% 9 km
Mo, 06.02. 7:00 88% 8 km
Ortszeit Relative Feuchte Sichtweite
Mi, 08.02. 4:30 89% 5.0 km
Mi, 08.02. 4:20 89% -
Mi, 08.02. 4:10 92% -
Mi, 08.02. 4:00 93% 100 m
Mi, 08.02. 3:50 93% -
Mi, 08.02. 3:40 93% -
Mi, 08.02. 3:30 93% 100 m
Mi, 08.02. 3:00 95% 100 m
Mi, 08.02. 2:30 93% 0.2 km
Mi, 08.02. 2:00 93% 100 m
Mi, 08.02. 1:30 93% 100 m
Ortszeit Niederschlagsmenge Niederschlagsart
Mi, 08.02. 1:00 0.0 l/m2 in 6 Std. -
Di, 07.02. 19:00 0.0 l/m2 in 12 Std. -
Di, 07.02. 13:00 0.0 l/m2 in 6 Std. -
Di, 07.02. 7:00 0.0 l/m2 in 12 Std. -
Di, 07.02. 1:00 0.0 l/m2 in 6 Std. -
Mo, 06.02. 19:00 0.4 l/m2 in 12 Std. Schnee, Sprühregen
Mo, 06.02. 13:00 0.4 l/m2 in 6 Std. Schnee, Regen
Mo, 06.02. 7:00 0.1 l/m2 in 12 Std. Schnee, Sprühregen
Ortszeit Niederschlagsmenge Niederschlagsart
Mi, 08.02. 4:30 0.0 l/m2 in 30 Min -
Mi, 08.02. 4:20 keine Meldung -
Mi, 08.02. 4:10 keine Meldung -
Mi, 08.02. 4:00 0.0 l/m2 in 1 Std. -
Mi, 08.02. 3:50 keine Meldung -
Mi, 08.02. 3:40 keine Meldung -
Mi, 08.02. 3:30 0.0 l/m2 in 30 Min -
Mi, 08.02. 3:00 0.0 l/m2 in 1 Std. -
Mi, 08.02. 2:30 0.0 l/m2 in 30 Min -
Mi, 08.02. 2:00 0.0 l/m2 in 1 Std. -
Mi, 08.02. 1:30 0.0 l/m2 in 30 Min -
Ortszeit Stärke Spitze Richtung
km/h Bft. km/h Grad Sektor
Mi, 08.02. 1:00 0 0 11 - -
Di, 07.02. 19:00 4 1 11 230° SW
Di, 07.02. 13:00 4 1 11 140° SO
Di, 07.02. 7:00 4 1 11 90° O
Di, 07.02. 1:00 4 1 18 70° O
Mo, 06.02. 19:00 11 2 32 50° NO
Mo, 06.02. 13:00 20 4 31 10° N
Mo, 06.02. 7:00 4 1 7 310° NW
Ortszeit Stärke Spitze Richtung
km/h Bft. km/h Grad Sektor
Mi, 08.02. 4:30 0 0 4 - -
Mi, 08.02. 4:20 2 1 - 40° NO
Mi, 08.02. 4:10 2 1 - 50° NO
Mi, 08.02. 4:00 2 1 6 30° NO
Mi, 08.02. 3:50 2 1 - 30° NO
Mi, 08.02. 3:40 2 1 - 70° O
Mi, 08.02. 3:30 2 1 6 90° O
Mi, 08.02. 3:00 4 1 11 110° O
Mi, 08.02. 2:30 6 1 9 110° O
Mi, 08.02. 2:00 2 1 4 120° SO
Mi, 08.02. 1:30 0 0 4 - -
Ortszeit Untergrenze Bedeckung Gattung
total tief tief mittel hoch
Mi, 08.02. 1:00 <30 m 8/8 0/8 - - -
Di, 07.02. 19:00 3900 m 2/8 1/8 - - -
Di, 07.02. 13:00 9000 m 4/8 0/8 - - -
Di, 07.02. 7:00 - 0/8 0/8 - - -
Di, 07.02. 1:00 - 0/8 0/8 - - -
Mo, 06.02. 19:00 300 m 3/8 3/8 - - -
Mo, 06.02. 13:00 120 m 8/8 8/8 - - -
Mo, 06.02. 7:00 630 m 7/8 7/8 - - -
Ortszeit Bedeckungsgrad in Achtel und Wolkenuntergrenze
Mi, 08.02. 4:30 4(<30m)
Mi, 08.02. 4:20 4(<30m)
Mi, 08.02. 4:10 7
Mi, 08.02. 4:00 8(<30m)
Mi, 08.02. 3:50 8(<30m)
Mi, 08.02. 3:40 8
Mi, 08.02. 3:30 8(<30m)
Mi, 08.02. 3:00 8(<30m)
Mi, 08.02. 2:30 8(<30m)
Mi, 08.02. 2:00 8(<30m)
Mi, 08.02. 1:30 8(<30m)
Ortszeit Luftdruck NN (hPa) Tendenz (hPa in 3 Std.)
Mi, 08.02. 1:00 1043 - 0,3
Di, 07.02. 19:00 1043 + 0,3
Di, 07.02. 13:00 1043 0,0
Di, 07.02. 7:00 1043 + 0,1
Di, 07.02. 1:00 1043 + 0,7
Mo, 06.02. 19:00 1042 + 1,8
Mo, 06.02. 13:00 1039 - 0,4
Mo, 06.02. 7:00 1039 - 0,4
Ortszeit Luftdruck NN (hPa) Tendenz (hPa in 3 Std.)
Mi, 08.02. 4:30 1043 0,0
Mi, 08.02. 4:20 1043 keine Meldung
Mi, 08.02. 4:10 1043 keine Meldung
Mi, 08.02. 4:00 1043 - 0,1
Mi, 08.02. 3:50 1043 keine Meldung
Mi, 08.02. 3:40 1043 keine Meldung
Mi, 08.02. 3:30 1043 + 0,1
Mi, 08.02. 3:00 1043 + 0,1
Mi, 08.02. 2:30 1043 + 0,1
Mi, 08.02. 2:00 1043 - 0,1
Mi, 08.02. 1:30 1043 - 0,2
Ortszeit Schneehöhe (cm)
Mi, 08.02. 1:00 0
Di, 07.02. 19:00 0
Di, 07.02. 13:00 0
Di, 07.02. 7:00 0
Di, 07.02. 1:00 0
Mo, 06.02. 19:00 0
Mo, 06.02. 13:00 0
Mo, 06.02. 7:00 0
Ortszeit Schneehöhe (cm)
Mi, 08.02. 4:30 0
Mi, 08.02. 4:20 0
Mi, 08.02. 4:10 0
Mi, 08.02. 4:00 0
Mi, 08.02. 3:50 0
Mi, 08.02. 3:40 0
Mi, 08.02. 3:30 0
Mi, 08.02. 3:00 0
Mi, 08.02. 2:30 0
Mi, 08.02. 2:00 0
Mi, 08.02. 1:30 0
Link zu dieser Seite / Seite empfehlen

Das Wetter in ...